WB4FAY-4 Weather Reports


time (UTC)temp
C
wind
direction
speed
KPH
gust
KPH
rain 1hr
cm
rain 24hr
cm
rain mn
cm
humidity
%
barometer
mb
20260504235017 24 248 0.0 4.8 0.00 0.00 0.00 40 1013.7
20260504234516 24 270 0.0 8.0 0.00 0.00 0.00 40 1013.7
20260504234017 24 182 0.0 9.7 0.00 0.00 0.00 39 1013.7
20260504233517 25 202 0.0 8.0 0.00 0.00 0.00 39 1013.8
20260504233017 25 208 0.0 11.3 0.00 0.00 0.00 39 1013.8
20260504232517 25 0 0.0 0.0 0.00 0.00 0.00 39 1013.9
20260504232017 25 0 0.0 0.0 0.00 0.00 0.00 37 1013.9
20260504231518 25 0 0.0 0.0 0.00 0.00 0.00 37 1013.8
20260504231017 25 217 0.0 1.6 0.00 0.00 0.00 38 1013.9
20260504230517 25 192 0.0 9.7 0.00 0.00 0.00 38 1013.9
20260504230017 25 199 0.0 8.0 0.00 0.00 0.00 39 1014.0
20260504225517 25 309 0.0 11.3 0.00 0.00 0.00 36 1014.0
20260504225017 25 192 4.8 11.3 0.00 0.00 0.00 36 1014.0
20260504224517 25 198 0.0 9.7 0.00 0.00 0.00 36 1014.0
20260504224017 26 237 1.6 4.8 0.00 0.00 0.00 35 1014.0
20260504223517 26 196 0.0 12.9 0.00 0.00 0.00 35 1014.1
20260504223017 26 206 0.0 4.8 0.00 0.00 0.00 34 1014.1
20260504222517 26 220 0.0 8.0 0.00 0.00 0.00 34 1014.2
20260504222017 26 193 4.8 9.7 0.00 0.00 0.00 35 1014.2
20260504221517 26 210 6.4 8.0 0.00 0.00 0.00 36 1014.2
20260504221018 26 226 0.0 3.2 0.00 0.00 0.00 36 1014.2
20260504220517 26 199 1.6 3.2 0.00 0.00 0.00 35 1014.2
20260504220017 26 193 0.0 8.0 0.00 0.00 0.00 37 1014.2
20260504215517 26 176 3.2 8.0 0.00 0.00 0.00 36 1014.2
20260504215018 26 206 0.0 4.8 0.00 0.00 0.00 34 1014.3
20260504214517 26 0 0.0 0.0 0.00 0.00 0.00 38 1014.4
20260504214017 26 0 0.0 0.0 0.00 0.00 0.00 37 1014.4
20260504213517 26 205 0.0 11.3 0.00 0.00 0.00 36 1014.4
20260504213017 26 200 0.0 6.4 0.00 0.00 0.00 36 1014.5
20260504212517 26 189 0.0 6.4 0.00 0.00 0.00 36 1014.5
20260504212017 26 192 0.0 12.9 0.00 0.00 0.00 36 1014.6
20260504211517 26 182 8.0 11.3 0.00 0.00 0.00 35 1014.6
20260504211017 26 195 8.0 16.1 0.00 0.00 0.00 34 1014.5
20260504210517 26 261 3.2 6.4 0.00 0.00 0.00 33 1014.6
20260504210017 26 237 0.0 6.4 0.00 0.00 0.00 34 1014.5
20260504205517 26 234 0.0 9.7 0.00 0.00 0.00 37 1014.7
20260504205017 26 178 4.8 3.2 0.00 0.00 0.00 38 1014.7
20260504204518 26 233 0.0 12.9 0.00 0.00 0.00 36 1014.7
20260504204017 26 263 8.0 11.3 0.00 0.00 0.00 34 1014.7
20260504203518 26 318 1.6 11.3 0.00 0.00 0.00 36 1014.7
20260504203017 26 195 0.0 14.5 0.00 0.00 0.00 34 1014.8
20260504202517 26 234 0.0 8.0 0.00 0.00 0.00 36 1014.8
20260504202018 26 167 0.0 6.4 0.00 0.00 0.00 35 1014.8
20260504201517 26 313 0.0 17.7 0.00 0.00 0.00 38 1014.8
20260504201017 26 198 0.0 8.0 0.00 0.00 0.00 36 1014.9
20260504200517 26 257 6.4 4.8 0.00 0.00 0.00 38 1015.0
20260504200017 25 0 0.0 0.0 0.00 0.00 0.00 39 1015.1
20260504195517 25 229 0.0 9.7 0.00 0.00 0.00 39 1015.2
20260504195017 25 83 3.2 6.4 0.00 0.00 0.00 36 1015.2
20260504194518 25 248 0.0 4.8 0.00 0.00 0.00 40 1015.3
20260504194017 25 256 0.0 6.4 0.00 0.00 0.00 39 1015.3
20260504193517 25 184 4.8 8.0 0.00 0.00 0.00 39 1015.4
20260504193017 25 247 0.0 4.8 0.00 0.00 0.00 40 1015.5
20260504192517 25 244 0.0 6.4 0.00 0.00 0.00 40 1015.5
20260504192017 25 258 0.0 9.7 0.00 0.00 0.00 39 1015.7
20260504191518 25 51 1.6 8.0 0.00 0.00 0.00 41 1015.7
20260504191017 25 48 4.8 8.0 0.00 0.00 0.00 43 1015.7
20260504190517 25 0 0.0 0.0 0.00 0.00 0.00 43 1015.8
20260504190017 25 78 0.0 4.8 0.00 0.00 0.00 43 1015.8
20260504185517 24 85 3.2 4.8 0.00 0.00 0.00 40 1015.9
20260504185017 25 0 0.0 0.0 0.00 0.00 0.00 41 1016.0
20260504184517 24 213 0.0 9.7 0.00 0.00 0.00 40 1016.2
20260504184017 25 196 0.0 8.0 0.00 0.00 0.00 39 1016.2
20260504183517 25 179 6.4 14.5 0.00 0.00 0.00 39 1016.2
20260504183017 25 215 0.0 3.2 0.00 0.00 0.00 41 1016.3
20260504182517 24 186 0.0 4.8 0.00 0.00 0.00 41 1016.4
20260504182017 24 83 1.6 11.3 0.00 0.00 0.00 42 1016.5
20260504181517 24 244 3.2 9.7 0.00 0.00 0.00 42 1016.6
20260504181017 24 247 0.0 8.0 0.00 0.00 0.00 42 1016.5
20260504180517 24 17 6.4 4.8 0.00 0.00 0.00 44 1016.5
20260504180017 24 172 0.0 9.7 0.00 0.00 0.00 42 1016.8
20260504175517 24 191 8.0 9.7 0.00 0.00 0.00 41 1016.9
20260504175017 25 257 0.0 4.8 0.00 0.00 0.00 46 1016.9
20260504174517 25 206 0.0 8.0 0.00 0.00 0.00 43 1016.9
20260504174017 25 164 0.0 6.4 0.00 0.00 0.00 43 1016.9
20260504173517 24 157 6.4 6.4 0.00 0.00 0.00 43 1017.0
20260504173017 24 222 3.2 8.0 0.00 0.00 0.00 43 1017.1
20260504172517 24 134 0.0 6.4 0.00 0.00 0.00 44 1017.1
20260504172018 23 134 3.2 11.3 0.00 0.00 0.00 44 1017.2
20260504171517 23 0 0.0 0.0 0.00 0.00 0.00 45 1017.3
20260504171017 23 189 0.0 4.8 0.00 0.00 0.00 45 1017.5
20260504170518 23 240 0.0 4.8 0.00 0.00 0.00 45 1017.6
20260504151017 20 232 0.0 4.8 0.00 0.00 0.00 57 1018.5
20260504150518 19 237 3.2 4.8 0.00 0.00 0.00 57 1018.5
20260504141017 17 179 1.6 9.7 0.00 0.00 0.00 64 1019.0
20260504140517 16 199 0.0 4.8 0.00 0.00 0.00 64 1019.1
20260504130517 12 0 0.0 0.0 0.00 0.00 0.00 88 1019.2
20260504110517 10 0 0.0 0.0 0.00 0.00 0.00 91 1018.4
20260504100517 10 0 0.0 0.0 0.00 0.00 0.00 91 1018.4
20260504081517 10 0 0.0 0.0 0.00 0.00 0.00 88 1018.1
20260504081017 10 0 0.0 0.0 0.00 0.00 0.00 88 1018.2
20260504080517 10 0 0.0 0.0 0.00 0.00 0.00 88 1018.3
20260504050517 11 0 0.0 0.0 0.00 0.00 0.00 80 1019.3
20260504050017 11 0 0.0 0.0 0.00 0.00 0.00 80 1019.3
20260504045517 11 0 0.0 0.0 0.00 0.00 0.00 80 1019.3
20260504045017 11 0 0.0 0.0 0.00 0.00 0.00 80 1019.3
20260504044517 12 0 0.0 0.0 0.00 0.00 0.00 80 1019.3
20260504044017 12 0 0.0 0.0 0.00 0.00 0.00 79 1019.4
20260504043517 12 0 0.0 0.0 0.00 0.00 0.00 79 1019.4
20260504043017 12 0 0.0 0.0 0.00 0.00 0.00 79 1019.4
20260504042517 12 0 0.0 0.0 0.00 0.00 0.00 78 1019.5
20260504042017 12 0 0.0 0.0 0.00 0.00 0.00 77 1019.5
20260504041517 12 0 0.0 0.0 0.00 0.00 0.00 77 1019.6
20260504041017 12 0 0.0 0.0 0.00 0.00 0.00 77 1019.5
20260504040517 12 0 0.0 0.0 0.00 0.00 0.00 77 1019.5
20260504040017 12 0 0.0 0.0 0.00 0.00 0.00 76 1019.6
20260504035518 12 0 0.0 0.0 0.00 0.00 0.00 77 1019.6
20260504035017 12 0 0.0 0.0 0.00 0.00 0.00 76 1019.7
20260504034517 12 0 0.0 0.0 0.00 0.00 0.00 76 1019.7
20260504034017 13 0 0.0 0.0 0.00 0.00 0.00 76 1019.7
20260504033517 13 0 0.0 0.0 0.00 0.00 0.00 76 1019.7
20260504033017 13 0 0.0 0.0 0.00 0.00 0.00 76 1019.8
20260504032517 13 0 0.0 0.0 0.00 0.00 0.00 76 1019.8
20260504032017 13 0 0.0 0.0 0.00 0.00 0.00 75 1019.8
20260504031517 13 0 0.0 0.0 0.00 0.00 0.00 75 1019.8
20260504031017 13 0 0.0 0.0 0.00 0.00 0.00 75 1019.8
20260504030517 13 0 0.0 0.0 0.00 0.00 0.00 74 1019.8
20260504030017 13 0 0.0 0.0 0.00 0.00 0.00 74 1019.8
20260504025517 13 0 0.0 0.0 0.00 0.00 0.00 74 1019.7
20260504025017 13 0 0.0 0.0 0.00 0.00 0.00 73 1019.6
20260504024517 13 0 0.0 0.0 0.00 0.00 0.00 73 1019.6
20260504024017 13 0 0.0 0.0 0.00 0.00 0.00 73 1019.5
20260504023517 13 0 0.0 0.0 0.00 0.00 0.00 72 1019.4
20260504023017 14 0 0.0 0.0 0.00 0.00 0.00 72 1019.4
20260504022517 14 0 0.0 0.0 0.00 0.00 0.00 71 1019.3
20260504022017 14 0 0.0 0.0 0.00 0.00 0.00 70 1019.3
20260504021516 14 0 0.0 0.0 0.00 0.00 0.00 70 1019.2
20260504021017 14 0 0.0 0.0 0.00 0.00 0.00 69 1019.2
20260504020517 15 0 0.0 0.0 0.00 0.00 0.00 68 1019.2
20260504020017 15 0 0.0 0.0 0.00 0.00 0.00 68 1019.2
20260504015517 15 0 0.0 0.0 0.00 0.00 0.00 67 1019.1
20260504015017 15 0 0.0 0.0 0.00 0.00 0.00 67 1019.1
20260504014517 15 0 0.0 0.0 0.00 0.00 0.00 66 1019.1
20260504014017 15 0 0.0 0.0 0.00 0.00 0.00 66 1019.2
20260504013522 15 0 0.0 0.0 0.00 0.00 0.00 64 1019.0
20260504013018 16 0 0.0 0.0 0.00 0.00 0.00 63 1018.9
20260504012517 16 0 0.0 0.0 0.00 0.00 0.00 62 1018.8
20260504012017 16 0 0.0 0.0 0.00 0.00 0.00 63 1018.7
20260504011517 16 0 0.0 0.0 0.00 0.00 0.00 61 1018.8
20260504011017 16 0 0.0 0.0 0.00 0.00 0.00 60 1018.8
20260504010517 16 0 0.0 0.0 0.00 0.00 0.00 60 1018.8
20260504010017 16 0 0.0 0.0 0.00 0.00 0.00 57 1018.6
20260504005517 17 0 0.0 0.0 0.00 0.00 0.00 57 1018.6
20260504005017 17 0 0.0 0.0 0.00 0.00 0.00 56 1018.5
20260504004517 17 0 0.0 0.0 0.00 0.00 0.00 54 1018.5
20260504004017 17 0 0.0 0.0 0.00 0.00 0.00 53 1018.4
20260504003517 18 0 0.0 0.0 0.00 0.00 0.00 54 1018.4
20260504003017 18 0 0.0 0.0 0.00 0.00 0.00 51 1018.3
20260504002517 18 0 0.0 0.0 0.00 0.00 0.00 50 1018.3
20260504002017 18 0 0.0 0.0 0.00 0.00 0.00 49 1018.3
20260504001517 18 0 0.0 0.0 0.00 0.00 0.00 49 1018.3
20260504001017 18 0 0.0 0.0 0.00 0.00 0.00 47 1018.3
20260504000517 19 0 0.0 0.0 0.00 0.00 0.00 48 1018.3
20260504000017 19 0 0.0 0.0 0.00 0.00 0.00 46 1018.3
20260503235517 19 0 0.0 0.0 0.00 0.00 0.00 45 1018.3